Location: Observatorio del Centro Ecologico de Sonora
(29.0667°N, 110.9333°W)
Time: 11:21:43
(UTC-07:00)

ISS - Visible Passes

Search period start: 29 May 2015 00:00
Search period end: 08 June 2015 00:00
Orbit: 399 x 404 km, 51.6° (Epoch: 29 May)

Date Brightness Start Highest point End Pass type
(mag) Time Alt. Az. Time Alt. Az. Time Alt. Az.
30 May -0.5 04:46:13 10° NNW 04:48:51 22° NE 04:51:31 10° E visible
30 May -1.5 19:45:41 10° SSE 19:47:12 13° SE 19:48:52 10° E visible
30 May -1.6 21:20:27 10° WSW 21:23:25 32° NW 21:26:23 10° NNE visible
31 May 0.2 03:54:05 10° N 03:55:22 12° NE 03:56:45 10° ENE visible
31 May -3.3 20:26:54 10° SW 20:30:08 81° NW 20:33:22 10° NE visible
01 Jun -2.7 04:35:34 10° NW 04:38:48 61° NE 04:42:01 10° SE visible
01 Jun 0.1 21:11:36 10° WNW 21:13:28 14° NW 21:15:16 10° N visible
02 Jun -1.0 03:42:39 10° NNW 03:45:27 26° NE 03:48:17 10° ESE visible
02 Jun -1.0 20:17:10 10° WSW 20:19:59 27° NW 20:22:49 10° NNE visible
03 Jun 0.0 02:50:14 10° N 02:51:58 14° NE 02:53:48 10° ENE visible
03 Jun -2.9 04:25:28 10° WNW 04:28:33 40° SW 04:31:36 10° SSE visible
04 Jun -2.9 03:35:57 53° ESE 03:35:57 53° ESE 03:38:33 10° SE visible
04 Jun 0.1 20:08:34 10° WNW 20:10:01 12° NW 20:11:22 10° N visible
